Weather History for New Philadelphia, OH

Change the Weather History Date:

Monday, October 8, 2012

  Actual Average Record
Temperature  
Mean Temperature 42 °F 55 °F  
Max Temperature 51 °F 67 °F 84 °F (1963)
Min Temperature 33 °F 43 °F 28 °F (2001)
Degree Days  
Heating Degree Days 23 10  
Month to date heating degree days 72 73  
Since 1 July heating degree days 214 179  
Cooling Degree Days 0 1  
Month to date cooling degree days 0 8  
Year to date cooling degree days 975 696  
Moisture  
Dew Point 36 °F    
Average Humidity 75    
Maximum Humidity 100    
Minimum Humidity 50    
Precipitation  
Precipitation 0.00 in 0.07 in 0.55 in (1982)
Month to date precipitation 0.81 0.69  
Year to date precipitation 23.93 30.90  
Sea Level Pressure  
Sea Level Pressure 30.24 in    
Wind  
Wind Speed 2 mph (SSE)    
Max Wind Speed 9 mph    
Max Gust Speed 15 mph    
Visibility 5 miles    
Events Fog    
T = Trace of Precipitation, MM = Missing Value Source: NWS Daily Summary

Daily Weather History Graph

Daily Weather History Graph

Search for Another Location

Airport:

Trip Planner

Search our weather history database for the weather conditions in past years. The results will help you decide how hot, cold, wet, or windy it might be!

Date:

Astronomy

Oct. 08, 2012 Rise Set
Actual Time 7:29 AM EDT 6:55 PM EDT
Civil Twilight 7:02 AM EDT 7:23 PM EDT
Nautical Twilight 6:30 AM EDT 7:54 PM EDT
Astronomical Twilight 5:59 AM EDT 8:26 PM EDT
Moon 12:06 AM EDT (10/8) 2:45 PM EDT (10/8)
Length of Visible Light 12h 20m
Length of Day
11h 25m
Waning Gibbous, 46% of the Moon is Illuminated
Oct 8
Waning Gibbous
Oct 15
New
Oct 21
First Quarter
Oct 29
Full
Nov 6
Last Quarter

Hourly Weather History & Observations

Time (EDT) Temp. Windchill Dew Point Humidity Pressure Visibility Wind Dir Wind Speed Gust Speed Precip Events Conditions
12:53 AM 37.9 °F 35.5 °F 37.0 °F 97% 30.20 in 0.2 mi SE 3.5 mph - N/A Fog Fog
1:53 AM 37.0 °F - 36.0 °F 96% 30.21 in 0.2 mi Calm Calm - N/A Fog Fog
2:53 AM 36.0 °F - 36.0 °F 100% 30.23 in 0.2 mi Calm Calm - N/A Fog Fog
3:53 AM 35.1 °F - 34.0 °F 96% 30.23 in 0.2 mi Calm Calm - N/A Fog Fog
4:53 AM 35.1 °F - 34.0 °F 96% 30.24 in 0.2 mi Calm Calm - N/A Fog Fog
5:53 AM 34.0 °F - 34.0 °F 100% 30.25 in 0.2 mi Calm Calm - N/A Fog Fog
6:53 AM 35.1 °F 32.2 °F 35.1 °F 100% 30.26 in 0.2 mi ESE 3.5 mph - N/A Fog Fog
7:53 AM 35.1 °F - 34.0 °F 96% 30.27 in 0.2 mi Calm Calm - N/A Fog Fog
8:53 AM 36.0 °F 33.3 °F 36.0 °F 100% 30.27 in 0.2 mi ESE 3.5 mph - N/A Fog Fog
9:53 AM 37.9 °F 35.5 °F 37.9 °F 100% 30.29 in 0.2 mi SE 3.5 mph - N/A Fog Fog
10:53 AM 42.1 °F - 39.0 °F 89% 30.28 in 0.5 mi Calm Calm - N/A Fog Fog
11:02 AM 42.8 °F - 39.2 °F 87% 30.26 in 0.8 mi Calm Calm - N/A   Clear
11:21 AM 42.8 °F - 39.2 °F 87% 30.26 in 1.2 mi Calm Calm - N/A   Clear
11:27 AM 44.6 °F - 37.4 °F 76% 30.26 in 3.0 mi Calm Calm - N/A   Haze
11:53 AM 45.0 °F 43.5 °F 36.0 °F 71% 30.28 in 10.0 mi South 3.5 mph - N/A   Clear
12:53 PM 46.9 °F - 35.1 °F 63% 30.28 in 10.0 mi Calm Calm - N/A   Clear
1:53 PM 48.9 °F - 37.0 °F 64% 30.25 in 10.0 mi Variable 4.6 mph - N/A   Mostly Cloudy
2:53 PM 50.0 °F - 34.0 °F 54% 30.24 in 10.0 mi Variable 4.6 mph - N/A   Mostly Cloudy
3:53 PM 51.1 °F - 34.0 °F 52% 30.22 in 10.0 mi South 4.6 mph - N/A   Mostly Cloudy
4:53 PM 51.1 °F - 34.0 °F 52% 30.22 in 10.0 mi South 4.6 mph - N/A   Mostly Cloudy
5:53 PM 50.0 °F - 34.0 °F 54% 30.22 in 10.0 mi South 3.5 mph - N/A   Mostly Cloudy
6:53 PM 46.9 °F - 35.1 °F 63% 30.21 in 10.0 mi SSE 3.5 mph - N/A   Partly Cloudy
7:53 PM 42.1 °F - 36.0 °F 79% 30.22 in 10.0 mi Calm Calm - N/A   Clear
8:53 PM 37.9 °F 35.5 °F 35.1 °F 89% 30.22 in 10.0 mi SE 3.5 mph - N/A   Clear
9:53 PM 37.0 °F - 34.0 °F 89% 30.23 in 9.0 mi Calm Calm - N/A   Clear
10:53 PM 36.0 °F - 34.0 °F 93% 30.23 in 7.0 mi Calm Calm - N/A   Clear
11:53 PM 34.0 °F - 33.1 °F 96% 30.23 in 5.0 mi Calm Calm - N/A   Clear